Wind_Speed
29 27 26 26 26 25 25 24 23 23 22 21 20 19 18 18 17 17 16 16 15 15 14 14 13 12 11 10 9 7 6 6 5 4 4 3 3 3 3 4 5 5 6 7 7 7 7 7 7 7 7 7 7 7 7 8 8 8 8 8 8 9 9 10 10 11 11 11 11 12 12 12 12 13 12 12 13 13 13 13 13 13 13 13 11 10
27 27 27 26 26 26 25 25 24 23 22 21 20 19 18 18 18 17 17 16 15 15 14 14 13 12 10 9 8 7 6 5 5 4 4 3 3 3 4 5 5 6 7 7 7 7 7 7 7 7 7 7 7 7 7 7 7 7 7 8 8 8 9 9 9 10 10 11 11 11 12 12 12 12 12 12 12 12 13 13 13 13 13 13 12 11
24 26 26 26 26 26 26 25 24 23 22 21 20 19 19 18 18 18 17 16 15 15 14 13 12 11 9 8 7 6 6 5 5 4 4 3 3 4 5 5 6 7 7 7 7 7 6 6 6 6 6 6 6 6 6 7 7 7 7 7 7 8 8 8 9 9 10 10 10 11 11 12 12 12 12 12 12 12 12 13 13 13 14 14 13 12
22 24 26 26 26 26 26 25 24 22 21 21 20 20 19 19 18 18 17 16 15 15 14 13 12 10 9 8 7 6 6 5 4 4 4 4 4 5 5 6 6 7 7 7 6 6 6 6 6 6 6 6 6 6 6 6 6 7 7 7 7 7 8 8 8 9 9 10 10 11 11 12 12 12 13 12 12 12 12 13 13 13 13 14 14 13
22 23 25 25 25 25 25 24 23 22 21 21 21 20 20 19 19 18 17 16 15 14 13 12 11 10 9 7 7 6 6 5 4 4 4 4 5 5 6 6 6 6 6 6 6 6 6 6 6 6 6 6 6 6 6 6 6 6 7 7 7 7 7 8 8 9 9 9 10 10 11 12 12 13 13 13 13 13 13 13 13 13 13 14 14 14
22 23 24 24 25 25 24 24 23 22 22 22 21 21 20 20 19 18 17 16 15 14 13 12 10 9 8 8 7 6 6 5 4 4 4 5 5 6 6 6 6 6 6 6 6 5 5 6 6 6 6 6 6 6 6 6 6 6 6 7 7 7 7 8 8 8 9 9 10 10 11 11 12 12 13 13 13 13 13 13 13 13 13 14 14 14
22 23 23 24 24 24 24 23 23 23 23 22 22 21 21 20 19 18 17 16 15 14 12 11 10 10 9 8 7 6 6 5 5 4 5 5 5 6 6 6 6 6 5 5 5 5 5 5 6 6 6 6 6 6 6 6 6 6 6 7 7 7 7 7 8 8 9 9 10 10 11 11 12 12 13 13 13 13 13 13 13 13 13 14 14 15
23 23 23 24 24 24 24 24 23 23 23 23 22 22 21 20 19 18 17 16 14 13 12 12 11 10 9 8 7 6 6 5 5 5 5 5 5 5 5 5 5 5 5 5 5 5 5 6 6 6 6 6 6 6 7 7 7 7 7 7 7 7 7 7 8 8 8 9 9 10 10 11 11 12 12 12 13 13 13 13 13 14 14 14 14 15
23 23 23 24 24 24 24 24 24 24 23 23 22 21 20 19 18 18 17 15 14 14 13 12 11 10 9 8 7 6 6 5 5 5 5 5 5 5 5 5 5 5 5 5 5 5 6 6 6 6 6 6 7 7 7 7 7 7 7 7 7 7 7 7 8 8 9 9 9 10 10 10 11 11 12 12 12 13 13 13 13 14 14 14 14 15
23 23 23 23 24 25 25 25 24 24 23 23 22 21 20 19 18 17 16 16 15 14 13 12 11 10 9 8 7 6 6 5 5 5 5 5 5 5 5 5 5 5 5 5 5 5 6 6 6 6 7 7 7 7 7 7 7 7 7 7 7 7 7 8 8 8 9 9 9 10 10 10 11 11 11 12 12 12 13 13 13 14 14 14 15 15
24 23 23 23 24 25 25 25 24 23 23 23 22 21 20 19 18 17 16 16 15 14 13 12 11 10 9 8 7 6 6 5 5 5 5 5 5 5 5 5 5 5 5 5 5 6 6 6 7 7 7 7 8 8 8 8 8 8 8 8 8 8 8 8 8 9 9 9 10 10 10 10 11 11 11 12 12 12 13 13 13 14 14 14 15 15
24 24 23 24 25 26 26 26 25 24 23 22 22 21 20 19 18 17 16 15 14 13 13 12 11 10 9 8 7 6 6 5 5 5 5 5 5 5 5 5 5 5 5 5 6 6 7 7 7 7 8 8 8 8 9 9 9 9 9 8 8 8 8 9 9 9 10 10 10 10 11 11 11 11 12 12 12 13 13 13 14 14 14 15 15 15
25 24 24 25 26 26 26 26 25 24 23 23 22 21 20 19 18 17 16 15 14 13 12 11 10 9 8 7 7 6 5 5 5 5 5 5 5 6 6 6 6 6 6 6 6 7 7 7 8 8 8 8 9 9 9 9 9 9 9 9 9 9 9 9 10 10 10 11 11 11 11 12 12 12 12 12 13 13 13 13 14 14 14 15 15 15
26 25 25 26 26 27 27 26 25 24 24 23 22 21 20 18 17 16 16 15 14 13 12 11 10 9 8 7 6 6 6 5 5 5 5 5 6 6 6 6 6 6 6 6 7 7 8 8 8 9 9 9 9 10 10 10 10 10 10 10 10 10 10 10 11 11 11 11 12 12 12 12 12 13 13 13 13 13 14 14 14 15 15 15 15 15
26 25 26 26 26 27 26 26 25 24 23 22 21 20 18 17 16 16 15 15 14 12 11 10 9 8 8 7 7 6 6 6 6 6 6 6 6 6 7 7 7 7 7 7 8 8 8 9 9 9 10 10 10 10 11 11 11 11 11 11 11 11 11 11 11 12 12 12 13 13 13 13 13 13 14 14 14 14 14 15 15 15 16 16 16 16
25 25 26 26 26 26 26 25 24 24 22 21 20 18 18 17 16 16 15 14 13 12 11 10 9 9 8 8 7 7 7 7 6 6 6 7 7 7 7 7 8 8 8 8 8 9 9 9 10 10 10 11 11 11 11 12 12 12 12 12 12 11 12 12 12 13 13 13 13 14 14 14 14 14 14 14 15 15 15 15 16 16 16 17 17 17
24 25 25 25 25 25 24 24 23 22 21 20 19 18 18 17 16 15 15 14 13 12 11 11 10 9 9 8 8 8 7 7 7 7 7 7 8 7 7 8 8 9 9 9 9 9 10 10 10 11 11 11 12 12 12 12 12 12 12 12 12 12 12 13 13 13 14 14 14 14 15 15 15 15 15 15 15 15 16 16 16 17 17 17 17 17
24 24 24 24 24 24 23 22 22 21 20 19 19 18 18 17 16 15 14 14 13 12 11 10 10 9 9 9 9 8 8 8 8 8 8 8 8 8 8 8 9 9 10 10 11 10 10 11 11 11 12 12 12 12 12 13 13 13 13 13 13 13 13 13 14 14 14 15 15 15 15 15 16 16 16 16 16 16 16 17 17 17 17 18 18 18
23 23 23 23 22 22 22 21 21 20 20 19 19 18 18 17 16 15 14 14 13 12 11 10 10 9 9 9 9 8 8 8 8 8 8 9 9 9 9 9 9 10 11 11 11 11 11 12 12 12 12 12 13 13 13 13 13 13 13 13 13 13 14 14 14 15 15 15 16 16 16 16 16 16 16 16 17 17 17 17 17 18 18 18 18 18
22 22 22 21 21 21 21 20 20 20 19 19 18 17 17 16 16 15 14 13 12 12 11 10 10 10 10 9 9 9 9 9 9 9 9 9 9 9 9 9 9 10 11 12 12 12 12 12 13 13 13 13 13 13 13 13 13 13 13 13 13 14 14 14 15 15 16 16 16 16 16 16 17 17 17 17 17 17 17 17 18 18 18 18 18 19
21 21 20 20 20 20 20 19 19 19 18 18 17 17 16 15 15 14 13 12 12 11 11 10 10 11 10 10 9 9 9 9 9 9 9 9 10 10 10 10 10 10 11 12 13 13 13 13 13 13 13 13 13 13 14 13 13 13 13 13 13 14 15 15 16 16 16 16 16 16 17 17 17 17 17 17 17 17 18 18 18 18 18 19 19 19
19 19 19 19 19 18 18 18 18 17 17 17 16 16 15 14 13 13 12 11 11 11 11 11 11 10 10 10 10 10 9 9 9 9 9 10 10 11 10 10 10 10 11 12 13 13 13 13 13 13 13 13 13 13 13 13 13 13 13 13 14 14 15 16 16 16 16 16 16 17 17 17 17 17 17 18 18 18 18 18 18 18 19 19 19 19
18 19 19 19 18 18 17 17 17 16 16 16 15 14 14 13 12 12 11 11 11 11 10 10 10 10 10 10 10 10 10 9 9 9 10 10 11 11 11 11 11 11 11 11 12 13 13 13 14 14 13 13 13 13 13 12 12 12 13 13 14 15 15 16 16 16 16 16 16 17 17 17 17 17 18 18 18 18 18 18 18 18 19 19 19 19
19 18 18 18 18 17 17 16 16 15 15 14 14 13 12 12 11 11 11 11 11 10 10 10 10 11 11 11 11 10 10 10 10 10 10 11 12 12 12 12 11 11 11 12 12 13 13 13 13 14 13 13 13 12 12 11 11 12 12 13 14 15 15 16 16 16 16 16 16 17 17 17 17 18 18 18 18 18 18 18 18 18 19 19 19 19
19 18 17 16 16 16 15 15 14 14 13 12 12 11 11 11 10 10 10 10 10 10 10 10 11 11 11 11 11 11 11 11 11 10 11 11 12 13 13 13 12 12 12 12 13 13 13 13 13 13 13 12 11 11 10 10 10 11 12 14 14 15 15 15 15 16 16 16 16 17 17 17 17 18 18 18 18 18 18 18 18 19 19 19 19 19
17 16 15 14 14 14 13 13 13 12 12 11 11 10 10 10 10 10 11 11 11 10 11 11 11 12 12 11 11 11 11 11 11 11 11 12 12 13 14 13 13 12 12 12 12 12 12 12 12 12 12 11 10 9 9 9 10 11 13 13 14 14 14 15 15 15 15 16 16 16 17 17 17 18 18 18 18 18 18 18 19 19 19 19 19 20
15 15 14 14 13 13 12 12 12 11 11 11 10 10 10 10 10 11 11 11 11 11 11 11 12 12 12 12 12 12 11 11 12 12 12 12 13 13 14 13 13 12 12 12 12 12 12 12 12 11 10 9 8 8 8 9 10 11 12 13 13 13 14 14 14 15 15 16 16 16 17 17 17 18 18 18 18 19 19 19 19 19 19 20 20 20
14 14 13 13 12 12 12 11 11 11 11 10 10 10 10 10 10 11 11 11 11 11 11 12 12 12 12 12 12 12 12 12 12 12 13 12 13 13 13 13 12 12 12 11 12 12 12 12 11 10 8 7 7 7 8 9 10 11 11 12 12 12 13 13 14 14 15 16 16 17 17 17 18 18 18 19 19 19 19 20 20 20 20 20 21 21
14 13 13 12 12 12 11 11 11 11 10 10 10 10 10 11 11 11 11 11 11 11 12 12 12 13 13 13 13 13 13 13 13 13 13 12 12 12 12 12 11 11 11 11 12 12 12 11 9 8 7 7 7 8 9 10 10 11 11 11 11 12 12 13 13 14 15 15 16 17 17 18 18 18 19 19 19 20 20 20 20 21 21 21 21 21
13 12 12 12 11 11 11 11 11 11 10 10 10 11 11 11 11 11 11 11 11 11 12 12 13 13 13 13 13 13 13 13 13 12 12 11 11 12 11 10 10 10 11 11 12 12 12 10 9 7 7 7 8 9 10 10 10 10 10 10 10 11 11 12 13 14 15 15 16 17 17 18 18 19 19 20 20 20 21 21 21 21 21 22 22 22
12 12 12 11 11 11 11 11 11 11 11 11 11 11 11 11 11 11 11 11 12 12 12 13 13 13 13 13 12 12 13 12 12 12 11 11 11 11 10 10 9 10 10 11 11 11 12 11 10 9 9 9 10 10 10 10 10 10 10 10 10 11 11 12 13 13 14 15 16 17 17 18 18 19 20 20 20 21 21 21 21 22 22 22 22 23
12 12 11 11 11 11 11 11 11 11 11 11 11 11 11 11 11 11 12 12 12 12 12 13 13 13 13 12 12 12 13 12 11 11 10 10 10 11 10 10 9 10 10 10 11 11 10 12 12 12 12 11 11 10 9 9 9 10 10 10 10 11 11 12 13 14 14 15 16 16 17 18 19 19 20 20 20 21 21 21 22 22 22 23 23 23
12 11 11 11 11 11 11 11 11 11 11 11 11 11 11 12 12 12 12 12 12 13 13 13 13 12 12 12 12 12 12 12 11 10 10 10 10 10 10 10 10 10 10 11 11 11 11 12 13 13 13 12 11 11 10 10 10 10 10 11 11 12 12 13 13 14 14 15 16 16 17 18 18 19 19 20 20 21 21 21 21 22 22 23 23 24
11 11 11 11 11 11 11 11 11 11 11 11 11 11 12 12 12 12 12 12 12 13 12 12 12 12 12 11 11 11 12 11 11 10 10 10 10 10 10 10 10 10 11 11 12 12 13 13 13 13 13 13 13 12 12 11 11 11 11 11 12 12 13 13 14 14 15 16 16 17 17 18 18 19 19 20 20 20 21 21 21 22 22 22 23 24
12 12 12 12 12 12 12 12 12 12 12 12 12 12 12 12 12 12 12 12 12 12 12 12 12 12 12 11 11 11 12 11 11 10 10 10 10 10 10 10 10 11 11 12 12 13 14 14 14 14 15 15 14 14 14 14 13 13 12 13 13 14 14 15 15 16 16 17 17 18 18 19 19 19 20 20 20 21 21 21 21 22 22 22 23 23
12 12 12 12 12 12 12 12 12 12 12 12 12 12 12 12 12 12 12 12 12 12 12 12 12 12 12 11 11 11 12 11 11 10 10 10 11 11 11 11 11 11 11 12 13 14 14 15 15 15 16 16 16 16 16 16 16 15 15 15 15 16 16 17 17 18 18 18 18 19 19 19 20 20 20 21 21 21 21 21 22 22 22 22 22 22
13 13 13 13 13 13 13 13 13 13 12 12 12 12 12 12 12 12 13 13 13 13 13 13 12 12 12 12 11 11 12 11 11 11 11 11 11 11 11 11 11 12 12 12 13 14 15 15 16 16 16 17 17 18 18 18 18 18 18 18 18 19 19 19 20 20 20 20 20 20 21 21 21 21 21 21 21 22 22 22 22 22 22 22 22 22
14 14 14 14 13 13 13 13 13 13 13 13 13 13 13 13 13 13 13 13 13 13 13 13 13 12 12 12 11 11 11 11 11 11 11 11 11 11 11 12 12 12 12 13 13 14 15 16 16 17 17 17 18 18 19 19 19 19 20 20 20 21 21 22 22 22 22 22 22 22 22 22 22 22 22 22 22 22 22 22 23 23 23 23 23 23
14 14 14 14 14 14 14 14 14 14 14 14 14 14 14 14 14 14 14 14 14 14 14 13 13 13 12 12 12 11 11 11 12 12 11 11 11 12 12 12 12 12 13 13 14 14 15 16 16 17 18 18 18 19 19 19 20 20 21 21 22 22 23 23 24 24 24 24 24 24 23 23 23 23 23 23 23 23 23 23 23 23 23 24 24 23
15 15 15 15 15 15 14 14 14 14 14 14 14 14 14 15 15 15 15 15 15 14 14 14 13 13 13 12 12 12 12 12 12 12 12 12 12 12 12 12 13 13 13 13 14 14 15 16 16 17 18 19 19 20 20 20 20 21 22 23 23 24 24 24 25 25 25 25 25 25 25 25 25 25 25 24 24 24 24 24 24 24 24 24 24 24
15 15 16 16 16 15 15 14 14 14 14 14 14 14 15 15 15 15 15 15 15 15 14 14 14 13 13 13 13 13 12 12 12 12 12 12 12 12 12 13 13 13 14 14 14 15 15 16 16 17 18 19 20 20 21 21 21 22 23 24 24 25 25 25 26 26 26 26 26 26 26 26 26 26 26 26 25 25 25 25 25 25 24 24 24 24
16 16 17 17 16 16 15 14 14 14 14 14 14 14 15 15 15 15 15 15 15 15 14 14 14 14 13 13 13 13 13 12 12 12 12 12 12 12 12 13 13 14 14 15 15 15 15 16 16 17 18 19 20 21 22 22 22 22 23 24 25 25 26 26 26 26 26 27 27 27 27 27 27 27 27 27 26 26 25 25 25 25 24 24 24 24
17 17 18 17 17 15 14 14 14 14 14 14 15 15 15 15 15 15 15 15 15 15 15 14 14 14 14 13 13 13 13 12 12 12 12 12 12 12 13 13 13 14 14 15 15 15 16 16 16 17 18 19 20 21 22 22 23 23 23 24 24 25 27 26 26 26 26 27 27 27 27 28 28 28 28 27 27 27 26 26 25 25 25 25 24 24
18 18 18 18 17 16 15 15 15 15 15 15 15 15 15 15 15 15 15 15 15 15 15 15 14 14 14 14 14 13 13 13 12 12 12 12 12 13 13 13 13 14 14 15 15 16 16 17 17 17 18 19 20 21 22 23 23 23 24 24 24 25 25 26 26 26 27 27 27 28 28 28 28 28 28 28 28 28 27 27 26 26 25 25 25 25
18 18 18 18 17 16 16 16 16 15 15 15 15 15 15 15 15 15 15 15 16 15 15 15 15 15 15 14 14 13 13 13 13 13 13 13 13 13 13 13 14 14 14 15 15 16 16 17 17 18 19 19 20 21 22 22 23 23 24 24 24 25 25 26 26 26 27 27 28 28 28 28 28 29 29 29 29 28 28 27 27 27 26 26 25 25
19 19 19 18 18 17 17 16 16 16 16 16 16 16 15 15 15 15 15 16 16 16 15 15 15 15 15 14 14 13 13 13 13 13 13 13 13 13 13 13 14 14 14 15 15 16 16 17 17 18 19 20 21 21 22 22 23 23 24 24 25 25 25 26 26 27 27 27 27 28 28 28 28 29 29 29 29 29 29 28 28 27 27 26 26 25
19 19 19 19 18 17 17 17 17 16 16 16 16 16 16 16 15 16 16 16 16 16 16 15 15 15 15 14 14 13 13 13 13 13 13 14 14 13 13 14 14 14 14 15 15 16 16 17 18 18 19 20 21 22 22 22 22 23 23 24 24 25 25 26 26 27 27 27 27 27 28 28 29 29 30 30 30 30 30 29 28 28 27 27 26 26
20 20 20 19 18 18 17 17 17 16 16 16 16 16 16 16 16 16 16 16 16 16 16 15 15 15 15 14 14 13 13 13 13 13 13 13 13 14 14 14 14 14 15 15 16 16 17 17 18 18 19 20 21 21 22 22 22 23 23 24 24 25 26 26 26 27 27 27 27 27 28 28 29 29 30 30 31 31 31 30 29 28 27 27 26 25
21 20 20 20 19 18 18 17 17 17 17 17 17 16 16 16 16 16 16 16 16 16 15 15 15 15 14 14 14 13 13 13 13 13 13 13 13 13 13 14 14 14 15 15 16 17 18 18 18 18 19 19 20 20 21 22 22 22 23 24 24 25 26 26 26 26 27 27 27 27 28 28 28 29 30 31 31 32 31 31 30 28 27 26 26 25
21 21 20 20 19 19 18 18 17 17 17 17 17 17 17 16 16 16 16 16 16 15 15 15 15 14 14 14 14 13 13 13 13 13 13 13 12 13 13 13 14 14 15 16 17 18 18 19 20 19 19 19 19 19 20 21 22 22 23 24 24 25 25 26 26 26 27 27 27 28 28 28 28 29 29 30 31 32 32 31 30 29 27 26 25 25
22 21 21 20 19 19 18 18 18 18 17 17 17 17 17 17 16 16 16 16 16 15 15 15 14 14 14 14 13 13 13 13 12 12 13 12 12 12 13 13 13 14 15 16 17 18 19 20 21 21 21 20 19 18 18 19 21 22 23 23 24 24 24 25 26 26 26 27 27 28 28 28 28 29 29 29 30 31 32 31 30 29 27 26 25 25
Wind_Direction
217 219 221 222 224 226 228 230 231 233 234 236 237 237 238 238 238 238 239 240 241 242 244 247 249 251 252 253 254 254 253 250 246 245 245 248 256 269 286 300 308 314 316 318 320 321 321 323 324 326 329 331 333 335 335 335 334 334 333 332 332 332 332 332 333 333 334 335 336 337 338 339 339 340 341 342 342 342 340 339 338 337 337 338 340 342
217 219 221 223 224 226 228 230 231 232 233 234 234 235 235 234 234 235 236 237 238 239 241 243 246 248 249 249 247 245 242 239 239 240 245 254 268 285 297 307 312 316 318 320 322 323 325 326 328 331 333 334 334 335 335 334 334 334 333 333 333 333 333 333 334 334 335 336 337 338 339 340 340 341 342 343 343 342 341 340 339 337 336 337 338 339
217 219 221 223 225 227 228 229 230 231 231 231 232 232 232 231 231 232 233 234 235 236 237 239 242 244 244 243 239 235 233 233 236 241 251 265 281 295 304 311 314 317 319 321 323 325 327 329 331 332 334 335 335 335 334 334 334 334 334 335 334 334 335 335 335 335 336 337 338 340 341 342 342 342 342 343 343 343 342 341 339 338 336 336 336 337
219 220 222 223 225 226 228 228 229 229 229 228 229 229 228 228 228 229 230 231 232 232 234 235 238 239 239 235 231 227 228 231 238 247 261 276 290 300 306 311 315 318 320 322 324 327 329 331 332 333 334 334 335 334 334 335 335 336 336 336 336 336 336 336 336 337 338 339 340 342 343 343 342 342 342 342 342 342 342 341 340 338 336 335 335 335
222 223 224 225 226 226 227 227 227 227 226 226 225 225 225 225 225 226 227 227 228 228 229 231 232 232 230 226 223 222 226 233 242 255 270 283 294 302 307 311 315 318 320 322 325 328 330 332 332 332 334 334 334 334 335 336 337 337 337 337 336 337 337 337 337 338 339 340 342 343 343 343 343 342 342 342 342 342 341 341 340 338 336 334 334 333
226 226 226 227 227 227 227 226 225 224 223 223 223 223 222 222 222 223 224 224 224 224 224 225 225 224 222 219 219 221 227 236 247 262 276 287 296 302 307 311 314 317 320 323 326 328 329 330 330 331 332 332 333 334 335 336 336 337 337 337 337 337 337 337 338 339 340 341 342 343 344 344 343 342 341 341 341 340 340 339 338 337 336 334 333 332
231 229 229 229 229 228 226 224 223 222 221 220 220 220 220 220 220 220 220 220 220 220 219 218 218 217 216 216 217 222 229 239 252 266 280 289 296 301 305 309 314 317 320 322 325 327 327 328 329 329 330 332 332 334 334 335 335 335 335 335 335 336 336 337 338 339 339 341 342 343 343 342 342 341 340 339 339 339 338 338 337 336 335 333 332 331
234 232 230 229 227 226 224 222 221 220 219 218 218 217 217 216 216 216 216 216 216 215 213 213 212 212 211 213 217 223 232 244 257 270 280 287 294 298 303 306 311 315 318 321 323 325 326 327 327 328 329 331 332 332 332 332 332 332 332 332 333 333 335 335 336 337 338 339 340 341 341 341 340 339 338 338 337 337 337 336 335 334 333 332 331 330
236 234 231 228 225 222 220 218 218 217 216 216 216 215 215 214 214 213 214 213 212 211 209 208 208 208 210 212 217 225 236 248 261 271 279 285 289 293 299 303 308 313 316 318 320 321 323 324 325 327 328 329 329 329 329 329 328 328 328 328 329 331 332 333 334 335 336 337 338 339 339 338 337 336 336 336 335 335 335 334 333 332 331 330 329 329
233 232 229 225 221 219 217 215 214 214 213 212 213 213 212 212 212 212 211 210 209 208 206 205 205 206 209 213 219 228 239 250 261 270 276 281 285 290 295 301 305 310 313 316 318 318 321 322 324 325 325 326 326 325 324 324 324 324 323 324 325 327 328 330 331 332 333 334 335 335 336 335 335 334 334 333 333 333 332 332 331 330 329 328 327 327
227 226 223 220 216 213 212 211 211 210 209 209 210 210 210 209 209 209 208 207 206 205 204 204 205 207 209 214 222 232 243 254 263 269 274 278 283 289 294 299 304 308 311 313 314 317 318 319 320 321 322 322 321 321 320 319 319 319 319 320 321 323 325 327 328 329 330 331 331 332 332 332 331 332 331 331 331 330 330 329 329 328 327 326 325 325
221 217 214 212 210 208 207 207 206 206 206 206 206 207 207 207 206 206 205 204 203 202 202 204 207 209 213 217 225 234 245 256 265 271 274 277 282 288 294 298 302 305 308 310 311 313 314 315 316 317 317 317 317 316 315 315 315 315 315 316 318 319 322 323 324 325 326 327 328 328 328 329 329 329 329 329 329 328 328 327 327 326 325 324 323 323
213 209 205 205 205 204 203 202 201 201 202 203 204 205 205 205 204 203 202 201 201 201 202 205 210 214 219 223 230 238 246 255 262 267 272 278 283 289 293 297 300 302 304 306 308 309 310 312 313 313 313 312 312 311 311 311 311 311 312 313 314 316 318 320 321 322 323 324 324 325 326 326 326 326 327 327 327 326 326 325 325 324 324 323 322 321
206 202 200 200 200 200 199 198 198 198 200 201 203 204 204 202 201 200 200 199 200 201 204 208 214 220 227 233 240 246 251 255 259 262 269 276 283 287 292 295 297 299 301 303 305 306 307 308 309 309 309 308 308 307 307 307 307 308 308 310 312 313 315 316 318 318 319 320 321 322 322 323 324 324 325 325 325 325 325 324 324 323 322 322 321 321
200 197 196 195 196 196 195 195 196 197 199 200 201 201 199 198 198 198 197 198 199 201 205 210 217 224 233 240 248 254 258 259 261 264 270 276 280 285 289 293 296 297 299 301 303 304 305 305 305 304 304 303 303 303 303 304 304 305 306 307 309 311 312 314 315 316 317 317 318 319 320 321 322 322 323 324 324 324 324 324 323 323 322 321 321 321
196 193 192 192 192 192 192 193 194 196 197 198 198 197 195 194 194 195 196 197 198 202 206 212 218 226 234 241 248 255 260 263 265 268 274 279 281 283 287 291 293 295 298 299 300 301 302 301 301 300 300 299 299 299 300 301 302 302 303 305 306 307 309 311 312 314 315 315 316 317 318 319 320 321 322 322 323 323 323 323 323 322 322 321 320 320
192 190 189 189 189 189 190 191 193 194 193 193 193 192 192 192 193 194 195 197 200 204 209 214 220 228 234 238 243 250 257 262 265 269 275 279 280 282 285 287 290 293 295 297 297 298 298 297 297 296 296 296 296 297 298 298 299 300 301 302 303 305 307 308 310 312 313 314 315 315 316 317 319 319 321 321 322 322 323 322 322 321 320 320 319 319
188 187 187 187 187 187 187 189 190 190 189 189 190 190 191 192 192 194 196 198 202 207 211 217 224 232 238 238 238 243 251 257 263 267 271 274 276 279 281 284 286 290 293 294 295 295 295 294 293 292 292 293 294 295 296 296 297 297 298 299 300 302 304 307 309 310 311 312 313 314 315 316 317 318 319 320 321 321 321 321 320 319 318 318 318 318
185 185 185 185 185 184 185 186 187 187 187 187 188 189 190 190 192 194 197 200 204 209 214 220 226 233 240 240 237 237 244 249 256 262 267 269 271 274 277 280 283 286 289 291 292 293 293 292 291 290 291 291 292 293 294 294 294 295 295 296 298 300 302 305 307 309 310 311 312 313 314 315 316 317 318 319 320 320 320 319 318 317 317 316 316 315
183 182 182 182 182 182 183 184 184 185 185 186 187 189 190 191 193 195 198 202 206 211 216 222 228 234 239 241 237 234 237 242 248 255 263 267 268 270 274 275 278 282 286 288 289 290 290 290 289 289 290 290 291 292 292 292 292 292 292 293 296 298 301 304 306 308 309 310 311 312 313 314 315 316 317 318 318 318 318 317 316 315 315 314 314 314
180 179 179 179 180 180 181 181 181 182 184 185 187 189 190 192 194 197 200 204 209 214 219 225 231 235 239 241 238 235 236 239 243 251 260 265 266 267 269 271 275 278 282 285 286 288 288 288 288 288 289 289 290 290 290 290 289 289 290 292 295 298 301 304 305 307 308 309 310 311 312 313 315 315 316 316 317 316 316 315 314 314 313 312 312 312
178 176 175 175 177 179 179 179 179 181 182 185 188 190 191 194 197 200 203 208 213 218 224 229 233 237 239 241 239 237 238 240 243 249 258 262 262 262 266 268 271 274 277 280 283 285 287 287 287 287 287 288 289 289 288 287 286 286 288 292 295 299 301 303 305 306 307 308 310 311 312 313 314 315 315 315 315 315 314 313 313 312 311 311 311 311
175 174 174 174 175 177 178 179 180 181 183 186 189 192 194 197 201 205 209 214 219 224 228 231 234 237 239 240 240 240 241 243 247 251 256 259 261 262 265 267 270 272 274 276 279 282 283 284 285 285 286 287 288 287 286 285 284 286 288 293 296 299 302 303 305 306 307 308 310 311 312 313 314 314 314 314 314 313 313 312 311 310 310 310 310 310
173 174 175 175 176 177 178 180 181 183 186 188 191 193 196 200 204 208 213 217 222 225 228 231 233 235 237 238 239 241 244 246 250 252 256 259 263 266 269 271 273 275 276 277 278 279 281 281 283 284 285 286 286 285 283 282 283 286 290 294 298 300 301 303 304 306 307 309 310 311 312 313 313 313 313 313 313 312 312 311 310 310 310 309 309 309
173 174 176 176 177 178 179 181 183 186 189 191 193 196 199 203 208 212 215 219 221 224 226 229 230 232 235 237 239 242 245 249 251 253 256 260 265 269 273 275 277 279 280 280 280 280 280 280 282 283 286 285 284 282 280 280 283 288 292 296 298 300 301 302 304 306 308 309 311 311 312 312 312 312 312 312 312 312 311 311 311 310 310 309 309 309
173 174 175 177 178 179 181 183 186 189 192 195 198 201 204 208 211 215 217 219 221 223 225 227 229 232 235 238 240 243 246 250 252 255 258 263 267 271 274 278 280 281 281 281 281 281 282 282 284 285 286 284 280 277 277 281 285 290 293 295 297 298 300 302 304 306 308 309 310 311 311 311 311 311 312 311 312 312 312 311 311 311 311 310 310 310
173 174 176 178 180 181 183 186 189 192 195 199 202 205 208 211 215 218 220 220 221 222 224 226 229 232 235 237 240 243 246 250 254 257 261 265 268 272 275 279 282 283 282 282 282 283 284 285 287 287 285 279 274 273 276 282 287 290 292 293 294 296 298 301 303 305 307 308 308 309 309 309 310 310 311 311 312 312 312 312 312 312 312 311 311 311
174 175 177 180 182 184 187 189 192 194 197 200 204 207 210 213 216 219 221 222 222 222 224 226 228 230 233 235 238 242 246 250 254 258 262 266 270 273 276 280 283 284 284 283 283 284 286 288 288 285 279 273 271 275 281 285 287 289 289 290 291 293 297 299 302 304 304 305 306 306 307 308 309 310 310 311 312 312 312 312 312 312 312 312 312 311
175 176 179 182 184 187 189 192 194 196 198 202 205 208 212 214 216 218 220 222 222 222 223 226 228 229 232 236 240 244 247 251 255 259 263 267 270 273 277 281 284 286 286 286 286 286 288 288 286 280 273 271 275 281 286 287 286 286 286 287 289 292 295 297 299 300 301 302 303 304 305 306 308 309 310 310 311 311 311 312 311 312 312 312 312 311
177 180 182 184 187 189 192 195 196 198 199 202 206 210 213 216 217 218 220 222 222 221 223 226 229 231 234 238 242 246 250 252 255 259 264 268 272 275 279 282 285 287 289 290 292 294 293 289 282 275 273 276 281 285 288 287 286 285 284 286 287 289 291 293 294 296 297 299 300 302 304 305 306 307 308 309 309 309 310 310 310 310 311 311 311 311
181 183 186 188 191 193 196 198 200 200 200 202 206 211 215 218 219 220 222 223 223 224 225 228 232 235 238 241 245 249 254 254 257 261 265 269 273 277 281 284 286 288 290 292 296 300 300 293 286 280 281 283 285 285 286 286 286 286 285 284 285 285 287 289 290 292 294 296 299 301 302 303 305 305 306 306 307 307 307 308 308 308 309 309 309 309
185 188 190 193 196 198 201 203 205 205 204 205 208 212 216 219 221 222 223 225 227 228 230 233 236 239 242 245 247 251 256 258 260 265 268 271 274 278 282 285 287 289 290 291 292 295 296 295 293 291 290 290 289 288 286 285 286 286 286 285 284 284 286 288 290 291 294 296 297 299 300 302 302 303 303 304 304 305 305 305 306 306 307 307 307 307
190 193 195 198 201 204 206 209 211 212 211 211 212 215 218 220 222 224 226 228 230 232 234 236 238 241 245 247 250 253 257 260 263 266 270 272 275 279 283 286 288 290 291 291 290 290 291 293 294 294 295 295 295 293 291 289 288 289 290 289 289 289 290 291 292 293 295 296 298 298 299 300 300 301 301 302 302 302 303 303 304 304 305 305 305 305
195 198 200 204 206 209 212 214 216 217 218 217 218 219 221 223 225 226 228 231 233 235 237 239 241 243 246 249 252 255 259 261 264 267 271 273 276 279 283 286 289 292 294 294 294 294 294 295 296 298 299 300 300 300 299 297 297 297 297 296 296 295 295 296 296 297 298 298 299 299 299 300 300 300 300 301 301 302 302 302 302 302 303 303 303 304
201 203 206 209 211 214 216 218 220 221 223 223 224 224 225 227 228 230 231 233 235 237 239 241 243 245 247 249 253 256 260 263 265 268 271 274 277 280 284 287 290 293 295 296 297 298 299 300 302 303 304 305 306 306 306 306 306 306 305 304 303 302 302 302 302 302 302 302 302 302 302 302 302 302 302 302 302 302 302 302 302 301 301 301 301 302
205 208 210 213 215 218 220 223 224 226 227 228 229 230 230 231 232 234 235 236 237 239 241 243 245 247 249 251 253 256 260 264 267 269 271 274 277 281 284 287 290 293 295 296 298 299 301 302 304 305 306 308 310 311 311 312 312 313 312 312 311 309 309 308 308 308 307 308 308 308 307 307 306 306 305 305 305 304 304 303 302 302 301 300 300 300
210 212 214 216 218 220 223 226 227 229 231 232 233 234 235 236 237 237 238 239 239 241 242 244 246 248 251 253 255 257 260 264 268 270 271 274 278 281 284 287 290 293 294 296 297 299 300 302 304 305 307 309 311 312 313 314 314 316 316 316 316 315 314 313 313 313 313 313 313 313 312 312 311 310 309 308 307 306 305 304 304 303 302 301 300 300
215 217 218 220 221 223 225 227 229 230 232 233 235 235 236 237 238 239 240 240 241 241 243 244 246 248 250 253 255 258 261 264 267 270 272 275 278 281 283 287 289 291 293 295 297 298 300 302 304 306 307 308 309 310 312 313 315 316 317 317 317 317 317 317 317 317 317 317 317 316 316 315 314 312 311 311 310 309 308 307 306 305 305 303 302 301
219 221 223 224 225 226 227 228 230 231 233 234 235 236 237 238 239 240 240 241 242 243 244 245 246 248 250 251 254 256 260 263 266 269 272 275 279 281 283 286 288 290 292 293 295 297 298 300 302 304 306 307 308 309 310 312 314 315 316 316 317 317 318 319 319 319 319 319 319 318 318 317 316 315 314 313 312 311 311 310 309 308 307 306 304 302
223 226 228 229 229 230 230 231 232 233 234 235 236 236 237 238 239 240 241 242 243 244 245 247 248 249 250 251 253 255 257 261 264 268 272 275 278 281 283 285 287 288 290 292 293 295 296 298 300 302 304 305 307 308 310 311 313 315 316 317 318 318 318 318 319 319 319 320 320 320 319 318 317 316 315 315 314 313 313 312 311 310 309 308 306 305
225 229 232 233 234 234 234 235 235 236 236 236 237 238 239 240 241 242 242 243 244 245 246 247 249 250 251 252 253 255 257 259 262 266 270 273 276 279 282 284 286 288 289 291 292 293 295 296 298 300 302 304 306 308 309 311 313 315 316 317 317 317 317 317 318 319 320 321 321 320 320 319 318 317 316 315 314 314 313 313 312 311 310 308 307 307
226 229 234 237 238 238 237 238 238 238 238 239 239 240 241 242 243 244 245 246 246 247 248 249 250 251 252 254 255 256 258 259 262 265 268 271 274 277 280 283 285 287 289 290 291 292 293 294 296 298 301 303 305 306 307 310 312 314 315 316 316 317 317 318 318 319 320 320 320 319 319 318 317 316 315 315 314 314 313 313 312 312 311 310 308 307
226 230 234 238 240 240 240 240 240 241 241 242 242 243 244 244 245 246 247 248 249 249 249 250 251 252 253 255 257 259 261 262 264 266 269 271 274 276 279 282 284 286 287 288 290 291 292 294 295 297 300 302 303 304 307 310 312 313 314 315 316 316 317 317 317 317 317 318 318 317 317 316 316 315 315 314 314 314 314 313 313 313 312 311 310 309
227 231 235 238 240 241 241 241 242 243 243 244 245 245 246 246 247 247 248 249 249 250 250 250 251 252 253 255 257 260 263 266 267 269 270 272 274 277 280 281 283 284 286 287 289 291 292 294 296 298 300 301 302 304 306 309 311 312 313 314 314 314 314 315 316 316 316 316 316 316 316 316 315 315 314 314 314 314 314 314 314 314 313 312 311 309
229 232 235 238 239 240 240 241 242 243 244 245 246 246 247 247 247 248 248 249 249 249 250 250 251 252 254 255 257 260 263 266 269 271 272 273 275 277 279 281 282 283 284 286 288 290 292 294 297 299 300 301 302 303 306 308 309 311 311 312 313 313 313 314 314 315 315 315 315 315 315 315 315 315 314 314 314 314 314 314 314 314 313 313 311 310
230 232 235 237 238 239 240 241 243 244 245 246 246 246 247 247 247 247 247 248 249 249 249 250 251 252 254 256 258 260 263 265 268 270 272 274 276 277 279 280 281 282 283 285 287 289 291 294 297 299 300 301 302 303 305 307 309 309 310 311 311 312 312 313 313 314 314 314 314 315 314 314 314 314 314 314 313 313 313 314 314 314 313 313 311 310
230 232 234 236 238 239 241 242 243 244 245 246 246 246 246 246 246 246 247 247 247 248 249 249 250 252 253 256 258 260 262 265 267 269 272 274 276 277 278 279 280 281 283 285 287 289 290 293 295 297 298 300 301 303 305 307 308 308 309 309 310 310 311 312 312 313 313 314 314 314 314 314 314 314 313 313 313 313 313 313 313 313 313 312 311 310
231 233 235 237 238 240 241 243 244 245 245 245 246 246 246 245 245 245 245 246 247 247 248 249 250 252 253 255 257 259 261 263 266 268 271 273 275 277 278 279 280 281 283 284 286 288 290 291 293 295 297 299 301 303 305 306 306 307 307 308 308 309 310 311 312 313 313 313 314 313 314 314 314 314 313 313 312 312 312 312 312 313 313 312 311 309
232 234 236 237 239 240 242 243 244 244 244 245 245 245 245 245 245 244 244 245 246 247 248 249 250 251 253 254 256 257 259 261 264 266 268 270 273 275 277 279 281 283 284 286 288 289 291 292 292 294 296 298 300 302 304 305 305 305 306 307 308 309 310 311 312 313 313 313 313 313 313 314 314 313 313 313 312 311 311 311 311 312 312 311 310 308
233 234 236 238 239 240 242 243 243 243 243 244 244 244 244 245 244 244 244 245 246 247 248 249 250 252 252 254 256 257 258 260 263 265 267 268 270 272 275 278 281 284 286 288 289 291 292 293 294 294 295 296 298 300 302 303 303 304 305 306 308 309 310 311 312 313 313 313 313 313 313 313 313 313 313 312 311 311 310 310 311 311 311 310 308 307
233 235 236 238 239 240 241 242 242 241 241 242 243 243 243 243 244 244 244 245 246 247 248 249 250 251 253 254 256 258 259 261 264 266 267 268 269 271 273 275 278 281 284 287 289 291 294 296 299 300 300 298 298 299 300 301 302 303 305 306 308 309 310 311 312 313 313 312 312 313 313 313 313 313 312 311 310 310 310 310 310 310 309 308 308 307
Height
1522 1523 1524 1525 1526 1526 1527 1528 1528 1529 1529 1529 1530 1530 1530 1530 1531 1531 1531 1531 1532 1532 1532 1532 1532 1533 1533 1533 1533 1533 1534 1534 1534 1534 1534 1534 1534 1534 1534 1534 1534 1534 1534 1534 1534 1534 1533 1533 1532 1532 1531 1531 1530 1530 1530 1530 1529 1529 1528 1528 1527 1527 1526 1526 1525 1525 1524 1524 1523 1522 1522 1521 1521 1520 1520 1519 1518 1518 1517 1516 1515 1515 1515 1514 1514 1514
1521 1522 1523 1524 1524 1525 1525 1526 1526 1527 1527 1528 1528 1528 1529 1529 1529 1530 1530 1530 1530 1531 1531 1531 1531 1531 1532 1532 1532 1532 1533 1533 1533 1533 1533 1533 1533 1533 1533 1533 1533 1533 1533 1533 1533 1533 1532 1532 1531 1531 1530 1530 1530 1530 1529 1529 1529 1528 1528 1527 1527 1526 1526 1525 1525 1524 1524 1523 1522 1522 1521 1521 1520 1520 1519 1518 1518 1517 1516 1516 1515 1515 1514 1514 1513 1513
1519 1520 1521 1522 1523 1523 1524 1524 1525 1525 1526 1526 1526 1526 1527 1527 1528 1528 1529 1529 1529 1530 1530 1530 1530 1530 1531 1531 1531 1531 1532 1532 1532 1532 1532 1532 1532 1532 1532 1532 1532 1532 1532 1532 1532 1532 1531 1531 1530 1530 1530 1530 1529 1529 1529 1528 1528 1528 1527 1527 1526 1526 1525 1525 1524 1524 1523 1523 1522 1521 1521 1520 1520 1519 1518 1518 1517 1516 1516 1515 1515 1514 1514 1513 1513 1513
1518 1519 1519 1520 1521 1521 1522 1522 1523 1523 1524 1524 1525 1525 1525 1526 1526 1527 1527 1528 1528 1528 1529 1529 1529 1530 1530 1530 1530 1530 1530 1531 1531 1531 1531 1531 1531 1531 1531 1531 1531 1531 1531 1531 1531 1531 1530 1530 1530 1530 1529 1529 1529 1529 1528 1528 1527 1527 1526 1526 1526 1525 1525 1524 1524 1523 1523 1522 1521 1521 1520 1520 1519 1518 1518 1517 1517 1516 1515 1515 1514 1514 1513 1513 1512 1512
1516 1516 1517 1518 1519 1519 1520 1520 1521 1522 1522 1523 1523 1523 1524 1524 1525 1525 1526 1526 1527 1527 1528 1528 1528 1528 1529 1529 1529 1530 1530 1530 1530 1530 1530 1530 1530 1530 1530 1530 1530 1530 1530 1530 1530 1530 1530 1529 1529 1529 1529 1528 1528 1528 1528 1527 1527 1526 1526 1525 1525 1525 1524 1524 1523 1523 1522 1521 1521 1520 1520 1519 1518 1518 1517 1517 1516 1515 1515 1514 1514 1513 1513 1512 1512 1511
1514 1515 1515 1516 1517 1517 1518 1519 1519 1520 1520 1521 1521 1521 1522 1523 1523 1524 1525 1525 1526 1526 1526 1527 1527 1527 1528 1528 1528 1529 1529 1529 1529 1530 1530 1530 1530 1530 1530 1530 1530 1530 1530 1530 1529 1529 1529 1529 1529 1528 1528 1528 1528 1527 1527 1526 1526 1526 1525 1525 1525 1524 1524 1523 1523 1522 1521 1521 1520 1520 1519 1518 1518 1517 1517 1516 1515 1515 1515 1514 1513 1513 1512 1512 1511 1510
1511 1512 1513 1514 1515 1515 1516 1517 1517 1518 1519 1519 1520 1520 1521 1521 1522 1523 1523 1524 1525 1525 1525 1526 1526 1526 1527 1527 1527 1528 1528 1528 1528 1529 1529 1529 1529 1529 1529 1529 1529 1529 1529 1529 1529 1528 1528 1528 1528 1528 1527 1527 1527 1526 1526 1526 1525 1525 1525 1525 1524 1524 1523 1523 1522 1521 1521 1520 1520 1519 1519 1518 1517 1517 1516 1515 1515 1515 1514 1513 1513 1512 1512 1511 1510 1510
1509 1510 1511 1512 1513 1514 1514 1515 1516 1516 1517 1518 1518 1519 1520 1520 1521 1521 1522 1523 1524 1524 1525 1525 1525 1525 1526 1526 1526 1527 1527 1527 1528 1528 1528 1528 1528 1528 1528 1528 1528 1528 1528 1528 1528 1528 1527 1527 1527 1527 1527 1526 1526 1526 1525 1525 1525 1525 1524 1524 1524 1523 1523 1522 1521 1521 1520 1520 1519 1519 1518 1517 1517 1516 1515 1515 1515 1514 1513 1513 1512 1512 1511 1511 1510 1509
1507 1508 1509 1510 1511 1511 1512 1513 1514 1515 1515 1516 1517 1518 1518 1519 1520 1520 1521 1522 1522 1523 1523 1524 1524 1525 1525 1525 1525 1526 1526 1526 1527 1527 1527 1527 1527 1527 1527 1527 1527 1527 1527 1527 1527 1527 1527 1526 1526 1526 1526 1525 1525 1525 1525 1525 1525 1524 1524 1523 1523 1522 1522 1521 1521 1520 1520 1519 1519 1518 1517 1517 1516 1515 1515 1515 1514 1513 1513 1512 1512 1511 1511 1510 1510 1509
1506 1507 1507 1508 1509 1510 1511 1511 1512 1513 1514 1515 1516 1516 1517 1518 1519 1519 1520 1521 1521 1522 1522 1523 1523 1524 1524 1524 1525 1525 1525 1525 1525 1526 1526 1526 1526 1526 1526 1526 1526 1526 1526 1526 1526 1526 1526 1525 1525 1525 1525 1525 1525 1525 1524 1524 1524 1524 1523 1523 1522 1522 1521 1521 1520 1520 1519 1519 1518 1517 1517 1516 1515 1515 1515 1514 1513 1513 1512 1512 1511 1510 1510 1510 1509 1508
1504 1505 1505 1506 1507 1508 1509 1510 1511 1512 1513 1514 1515 1515 1516 1517 1518 1518 1519 1520 1520 1521 1521 1522 1522 1523 1523 1523 1523 1524 1524 1524 1525 1525 1525 1525 1525 1525 1525 1525 1525 1525 1525 1525 1525 1525 1525 1525 1525 1524 1524 1524 1524 1524 1524 1523 1523 1523 1522 1522 1521 1521 1520 1520 1519 1519 1518 1518 1517 1517 1516 1515 1515 1514 1514 1513 1513 1512 1511 1511 1510 1510 1509 1509 1508 1508
1502 1503 1504 1505 1505 1506 1507 1509 1510 1510 1511 1512 1513 1514 1515 1515 1516 1517 1518 1519 1519 1520 1520 1521 1521 1521 1522 1522 1522 1523 1523 1523 1524 1524 1524 1524 1524 1525 1525 1525 1525 1525 1525 1524 1524 1524 1524 1524 1524 1523 1523 1523 1523 1523 1523 1522 1522 1522 1521 1521 1520 1520 1520 1519 1519 1518 1517 1517 1516 1516 1515 1515 1514 1514 1513 1512 1512 1511 1511 1510 1510 1509 1509 1508 1507 1507
1500 1501 1502 1503 1504 1505 1505 1507 1508 1509 1510 1511 1512 1513 1514 1515 1515 1516 1517 1517 1518 1519 1519 1520 1520 1520 1521 1521 1521 1522 1522 1522 1523 1523 1523 1523 1523 1524 1524 1524 1524 1524 1524 1523 1523 1523 1523 1523 1523 1523 1522 1522 1522 1522 1522 1522 1521 1521 1520 1520 1520 1519 1518 1518 1517 1517 1516 1516 1515 1515 1514 1514 1513 1513 1512 1511 1511 1510 1510 1509 1509 1508 1508 1507 1506 1506
1499 1499 1500 1501 1502 1503 1504 1505 1506 1507 1508 1510 1511 1512 1513 1514 1515 1515 1516 1516 1517 1518 1518 1519 1519 1519 1520 1520 1520 1520 1521 1521 1522 1522 1522 1522 1522 1523 1523 1523 1522 1522 1522 1522 1522 1522 1522 1522 1522 1522 1522 1521 1521 1521 1521 1520 1520 1520 1519 1519 1518 1518 1517 1517 1516 1516 1515 1515 1514 1514 1513 1513 1512 1512 1511 1510 1510 1510 1509 1508 1508 1507 1507 1506 1505 1505
1497 1498 1498 1499 1500 1501 1503 1504 1505 1506 1507 1509 1510 1511 1512 1513 1514 1514 1515 1515 1516 1516 1517 1518 1518 1518 1518 1519 1519 1520 1520 1520 1521 1521 1521 1521 1521 1522 1522 1521 1521 1521 1521 1521 1521 1521 1521 1521 1521 1521 1521 1521 1520 1520 1520 1520 1519 1519 1518 1518 1517 1516 1516 1515 1515 1515 1514 1514 1513 1513 1512 1512 1511 1510 1510 1510 1509 1508 1508 1507 1507 1506 1505 1505 1504 1504
1496 1496 1497 1498 1499 1500 1502 1503 1504 1505 1506 1508 1509 1510 1511 1512 1512 1513 1514 1514 1515 1515 1516 1516 1517 1517 1517 1518 1518 1519 1519 1519 1520 1520 1520 1520 1520 1521 1521 1520 1520 1520 1520 1520 1520 1520 1520 1520 1520 1520 1520 1520 1520 1519 1519 1519 1518 1518 1517 1516 1516 1515 1515 1515 1514 1514 1513 1513 1512 1511 1511 1510 1510 1510 1509 1508 1508 1507 1506 1506 1505 1505 1504 1504 1503 1502
1495 1496 1496 1497 1498 1500 1501 1502 1503 1505 1506 1507 1508 1509 1510 1510 1511 1512 1512 1513 1514 1515 1515 1515 1516 1516 1516 1517 1517 1518 1518 1518 1519 1519 1519 1519 1519 1520 1520 1520 1519 1519 1519 1519 1519 1519 1519 1519 1519 1519 1519 1519 1519 1518 1518 1517 1517 1516 1516 1515 1515 1514 1514 1513 1513 1512 1512 1511 1511 1510 1510 1509 1509 1508 1508 1507 1506 1506 1505 1505 1504 1504 1503 1502 1502 1501
1494 1495 1496 1497 1498 1499 1500 1501 1502 1504 1505 1506 1507 1508 1509 1509 1510 1511 1511 1512 1513 1514 1514 1515 1515 1515 1515 1516 1516 1517 1517 1518 1518 1518 1518 1518 1518 1519 1519 1519 1519 1518 1518 1518 1518 1518 1518 1518 1518 1518 1518 1518 1517 1517 1517 1516 1515 1515 1515 1514 1513 1513 1512 1512 1511 1511 1510 1510 1510 1509 1509 1508 1507 1507 1506 1506 1505 1505 1504 1504 1503 1502 1502 1501 1500 1500
1494 1495 1495 1496 1497 1498 1500 1500 1502 1503 1504 1505 1506 1507 1508 1508 1509 1510 1510 1511 1512 1513 1513 1514 1514 1514 1515 1515 1516 1516 1517 1517 1517 1517 1517 1517 1518 1518 1518 1518 1518 1517 1517 1517 1517 1517 1517 1517 1517 1517 1517 1516 1516 1516 1515 1515 1514 1514 1513 1513 1512 1512 1511 1511 1510 1510 1509 1509 1508 1508 1507 1507 1506 1506 1505 1505 1504 1504 1503 1502 1502 1501 1501 1500 1500 1499
1493 1494 1495 1496 1497 1498 1499 1500 1501 1502 1503 1504 1505 1506 1507 1507 1508 1509 1510 1510 1511 1512 1512 1513 1513 1513 1514 1514 1515 1516 1516 1516 1517 1517 1517 1517 1517 1517 1517 1517 1517 1516 1516 1516 1516 1516 1516 1516 1516 1515 1515 1515 1515 1515 1514 1514 1513 1512 1512 1511 1511 1510 1510 1510 1509 1508 1508 1507 1507 1506 1506 1505 1505 1504 1504 1503 1503 1502 1502 1501 1501 1500 1500 1499 1498 1498
1493 1494 1495 1496 1497 1498 1499 1500 1501 1502 1503 1504 1505 1505 1506 1507 1507 1508 1509 1510 1510 1511 1511 1511 1512 1512 1513 1513 1514 1515 1515 1516 1516 1516 1516 1516 1516 1516 1516 1516 1516 1516 1515 1515 1515 1515 1515 1515 1515 1514 1514 1514 1514 1513 1513 1512 1512 1511 1511 1510 1510 1509 1509 1508 1508 1507 1506 1506 1505 1505 1505 1504 1504 1503 1503 1502 1502 1501 1501 1500 1500 1499 1499 1498 1497 1496
1493 1494 1495 1495 1497 1498 1499 1500 1500 1501 1502 1503 1504 1505 1505 1506 1506 1507 1508 1508 1509 1510 1510 1510 1511 1511 1512 1513 1513 1514 1514 1515 1515 1515 1515 1515 1515 1515 1515 1515 1515 1515 1515 1514 1514 1514 1514 1513 1513 1513 1513 1513 1512 1512 1511 1511 1510 1510 1510 1509 1509 1508 1507 1507 1506 1506 1505 1505 1504 1504 1503 1503 1502 1502 1501 1501 1500 1500 1500 1499 1499 1498 1497 1497 1496 1495
1493 1493 1494 1495 1496 1497 1498 1499 1500 1501 1501 1502 1503 1504 1504 1505 1505 1506 1507 1507 1508 1508 1509 1510 1510 1510 1511 1512 1512 1513 1513 1514 1514 1514 1515 1515 1514 1514 1515 1515 1515 1514 1514 1514 1513 1513 1512 1512 1512 1512 1512 1511 1511 1510 1510 1510 1509 1509 1508 1508 1507 1507 1506 1505 1505 1505 1504 1504 1503 1502 1502 1501 1501 1500 1500 1500 1499 1499 1498 1498 1497 1497 1496 1495 1495 1494
1492 1493 1494 1495 1495 1496 1497 1498 1499 1500 1501 1501 1502 1503 1503 1504 1505 1505 1506 1506 1507 1507 1508 1509 1509 1510 1510 1511 1511 1512 1512 1513 1513 1513 1513 1513 1513 1513 1513 1513 1513 1513 1513 1513 1512 1512 1511 1511 1511 1511 1510 1510 1510 1510 1509 1508 1508 1508 1507 1507 1506 1505 1505 1504 1504 1503 1503 1502 1502 1501 1501 1500 1500 1499 1499 1498 1498 1498 1497 1497 1496 1495 1495 1494 1493 1493
1491 1492 1493 1494 1495 1496 1497 1498 1498 1499 1500 1501 1501 1502 1502 1503 1504 1504 1505 1505 1506 1506 1507 1508 1508 1509 1509 1510 1510 1511 1511 1511 1512 1512 1512 1512 1512 1512 1512 1512 1512 1512 1512 1511 1511 1510 1510 1510 1510 1510 1509 1509 1509 1508 1508 1507 1507 1506 1506 1505 1505 1504 1504 1503 1503 1502 1501 1501 1500 1500 1500 1499 1499 1498 1498 1497 1497 1496 1496 1495 1495 1494 1493 1493 1492 1491
1491 1492 1493 1494 1495 1495 1496 1497 1498 1499 1499 1500 1500 1501 1501 1502 1503 1503 1504 1504 1505 1505 1506 1507 1507 1508 1508 1509 1509 1510 1510 1510 1510 1511 1511 1511 1511 1511 1510 1510 1510 1510 1510 1510 1510 1509 1509 1509 1509 1509 1508 1508 1507 1507 1507 1506 1506 1505 1505 1505 1504 1503 1503 1502 1501 1501 1500 1500 1500 1499 1499 1498 1498 1497 1496 1496 1495 1495 1495 1494 1493 1493 1492 1491 1490 1490
1490 1491 1492 1493 1494 1495 1495 1496 1497 1498 1499 1499 1500 1500 1501 1501 1502 1502 1503 1503 1504 1505 1505 1505 1506 1506 1507 1508 1508 1509 1509 1509 1509 1510 1510 1510 1510 1510 1509 1509 1509 1509 1509 1509 1509 1508 1508 1508 1508 1507 1507 1507 1506 1506 1506 1505 1505 1505 1504 1504 1503 1502 1502 1501 1500 1500 1500 1499 1499 1498 1498 1497 1496 1496 1495 1495 1494 1494 1493 1492 1492 1491 1490 1490 1489 1488
1490 1490 1491 1492 1493 1494 1495 1495 1496 1497 1498 1498 1499 1499 1500 1500 1501 1501 1502 1502 1503 1504 1504 1505 1505 1505 1506 1507 1507 1508 1508 1508 1508 1508 1509 1509 1508 1508 1508 1508 1508 1507 1507 1507 1507 1507 1507 1507 1506 1506 1506 1505 1505 1505 1505 1505 1504 1504 1503 1503 1502 1501 1501 1500 1500 1499 1499 1498 1498 1497 1496 1496 1495 1495 1494 1494 1493 1492 1491 1491 1490 1490 1489 1488 1487 1486
1489 1490 1490 1491 1492 1493 1494 1495 1495 1496 1497 1497 1498 1498 1499 1500 1500 1500 1501 1501 1502 1502 1503 1504 1504 1505 1505 1506 1506 1506 1507 1507 1507 1507 1507 1507 1507 1507 1506 1506 1506 1506 1506 1506 1506 1506 1506 1505 1505 1505 1505 1505 1505 1504 1504 1504 1503 1503 1502 1502 1501 1500 1500 1500 1499 1498 1498 1497 1497 1496 1495 1495 1494 1494 1493 1492 1491 1491 1490 1489 1489 1488 1487 1486 1486 1485
1488 1489 1490 1491 1492 1492 1493 1494 1495 1495 1496 1496 1497 1497 1498 1498 1499 1499 1500 1500 1501 1501 1502 1503 1503 1504 1504 1505 1505 1505 1505 1505 1505 1506 1506 1506 1505 1505 1505 1505 1505 1505 1505 1505 1504 1504 1504 1504 1504 1504 1504 1504 1504 1503 1503 1503 1502 1502 1501 1501 1500 1500 1499 1499 1498 1498 1497 1496 1496 1495 1495 1494 1493 1492 1492 1491 1490 1490 1489 1488 1487 1486 1485 1485 1484 1483
1488 1488 1489 1490 1491 1492 1492 1493 1494 1495 1495 1495 1496 1496 1497 1497 1498 1498 1499 1499 1500 1500 1501 1502 1502 1503 1503 1503 1504 1504 1504 1504 1504 1504 1505 1504 1504 1504 1504 1504 1504 1504 1504 1504 1503 1503 1503 1503 1503 1503 1503 1503 1503 1502 1502 1501 1501 1500 1500 1500 1499 1499 1498 1498 1497 1497 1496 1495 1495 1494 1494 1493 1492 1491 1490 1490 1489 1488 1487 1487 1486 1485 1484 1483 1482 1482
1487 1488 1489 1489 1490 1491 1491 1492 1493 1493 1494 1495 1495 1495 1496 1496 1497 1497 1498 1498 1499 1500 1500 1500 1501 1501 1502 1502 1502 1502 1502 1503 1503 1503 1503 1503 1503 1502 1502 1502 1502 1502 1502 1502 1502 1502 1502 1501 1501 1501 1501 1501 1501 1501 1500 1500 1500 1499 1499 1499 1498 1498 1497 1497 1496 1496 1495 1495 1494 1493 1492 1492 1491 1490 1490 1489 1488 1487 1486 1485 1484 1483 1483 1482 1481 1480
1486 1487 1488 1489 1489 1490 1490 1491 1492 1492 1493 1493 1494 1494 1495 1495 1496 1496 1497 1497 1498 1498 1499 1499 1500 1500 1500 1500 1501 1501 1501 1501 1501 1501 1501 1501 1501 1501 1501 1501 1501 1501 1501 1501 1501 1501 1500 1500 1500 1500 1500 1499 1499 1499 1499 1499 1498 1498 1498 1497 1497 1496 1496 1495 1495 1494 1494 1493 1493 1492 1491 1490 1490 1489 1488 1487 1487 1486 1485 1484 1483 1482 1481 1480 1479 1478
1485 1486 1487 1488 1488 1489 1490 1490 1490 1491 1491 1492 1493 1493 1494 1494 1495 1495 1495 1496 1497 1497 1498 1498 1498 1499 1499 1499 1500 1500 1500 1500 1500 1500 1500 1500 1500 1500 1500 1500 1500 1500 1500 1500 1500 1499 1499 1499 1498 1498 1498 1497 1497 1497 1497 1497 1497 1496 1496 1496 1495 1495 1494 1494 1493 1493 1492 1492 1491 1490 1490 1489 1488 1488 1487 1486 1485 1484 1483 1483 1482 1481 1480 1479 1478 1476
1485 1485 1486 1487 1487 1488 1488 1489 1489 1490 1490 1491 1491 1492 1492 1493 1494 1494 1495 1495 1495 1496 1496 1497 1497 1497 1498 1498 1498 1498 1498 1498 1498 1499 1499 1499 1498 1498 1498 1498 1499 1499 1498 1498 1498 1498 1497 1497 1496 1496 1496 1495 1495 1495 1495 1495 1495 1495 1494 1494 1493 1493 1492 1492 1491 1491 1490 1490 1489 1489 1488 1487 1486 1486 1485 1484 1483 1482 1482 1481 1480 1479 1478 1477 1476 1475
1484 1484 1485 1485 1486 1487 1487 1488 1488 1489 1489 1490 1490 1491 1491 1492 1492 1493 1493 1494 1494 1495 1495 1495 1496 1496 1496 1496 1497 1497 1496 1497 1497 1497 1497 1497 1497 1497 1497 1497 1497 1497 1497 1497 1496 1496 1495 1495 1495 1495 1494 1494 1493 1493 1493 1493 1493 1492 1492 1492 1491 1491 1490 1490 1489 1489 1488 1487 1487 1486 1485 1485 1484 1484 1483 1482 1481 1480 1480 1479 1478 1477 1476 1475 1475 1474
1483 1484 1484 1485 1485 1485 1486 1486 1487 1487 1488 1488 1489 1490 1490 1490 1491 1491 1492 1493 1493 1493 1494 1494 1495 1495 1495 1495 1495 1495 1495 1495 1495 1495 1495 1495 1495 1495 1495 1496 1496 1496 1495 1495 1495 1495 1494 1494 1493 1493 1493 1492 1492 1491 1491 1491 1491 1490 1490 1490 1489 1489 1488 1488 1487 1486 1486 1485 1485 1484 1483 1483 1482 1481 1480 1480 1479 1478 1478 1477 1476 1475 1474 1473 1473 1472
1482 1482 1483 1484 1484 1484 1485 1485 1486 1486 1487 1487 1488 1488 1489 1489 1490 1490 1491 1491 1492 1492 1492 1493 1493 1493 1494 1494 1494 1494 1494 1494 1494 1494 1494 1494 1494 1494 1494 1494 1494 1494 1494 1494 1494 1493 1493 1492 1492 1491 1491 1491 1491 1490 1490 1490 1489 1489 1488 1488 1487 1487 1486 1485 1485 1484 1483 1483 1482 1481 1481 1480 1480 1479 1478 1478 1477 1476 1475 1475 1474 1473 1472 1471 1470 1470
1481 1481 1482 1482 1483 1483 1484 1484 1485 1485 1486 1486 1487 1487 1488 1488 1489 1489 1490 1490 1490 1491 1491 1491 1492 1492 1492 1492 1492 1493 1492 1492 1492 1492 1492 1493 1493 1493 1493 1493 1493 1493 1493 1493 1492 1492 1491 1491 1490 1490 1490 1490 1489 1489 1489 1488 1488 1487 1487 1486 1485 1485 1484 1483 1482 1482 1481 1480 1480 1479 1478 1478 1477 1476 1476 1475 1475 1474 1473 1472 1471 1470 1470 1469 1468 1467
1480 1480 1480 1481 1481 1482 1483 1483 1484 1484 1485 1485 1485 1486 1486 1487 1487 1488 1488 1489 1489 1489 1490 1490 1490 1490 1491 1491 1491 1491 1491 1491 1491 1491 1491 1491 1491 1491 1491 1491 1491 1491 1491 1491 1491 1491 1490 1490 1490 1489 1489 1488 1488 1487 1487 1487 1486 1486 1485 1484 1483 1483 1482 1481 1481 1480 1479 1478 1478 1477 1476 1475 1475 1474 1473 1473 1472 1471 1470 1470 1469 1468 1467 1466 1465 1465
1479 1479 1479 1480 1480 1481 1481 1482 1482 1483 1483 1484 1484 1485 1485 1485 1486 1486 1487 1487 1487 1488 1488 1489 1489 1489 1489 1490 1490 1490 1490 1490 1490 1490 1490 1490 1490 1490 1490 1490 1490 1490 1490 1490 1490 1489 1489 1489 1488 1488 1487 1487 1486 1485 1485 1485 1485 1484 1484 1483 1482 1481 1480 1480 1479 1478 1477 1476 1475 1475 1474 1473 1472 1471 1471 1470 1470 1469 1469 1468 1467 1466 1465 1465 1464 1463
1477 1477 1478 1478 1479 1479 1480 1480 1481 1481 1482 1482 1483 1483 1484 1484 1484 1485 1485 1485 1486 1486 1487 1487 1487 1487 1488 1488 1488 1488 1488 1488 1489 1489 1489 1489 1489 1489 1489 1489 1489 1489 1489 1488 1488 1488 1488 1488 1487 1487 1486 1486 1485 1484 1484 1483 1483 1483 1482 1481 1480 1479 1478 1478 1477 1476 1475 1474 1473 1473 1472 1471 1470 1469 1469 1468 1467 1467 1466 1466 1465 1464 1463 1462 1461 1461
1476 1476 1476 1476 1477 1478 1479 1479 1480 1480 1480 1481 1481 1482 1482 1482 1483 1483 1484 1484 1484 1485 1485 1485 1485 1486 1486 1486 1486 1486 1486 1487 1487 1487 1487 1487 1487 1487 1487 1487 1487 1487 1487 1487 1487 1486 1486 1486 1486 1486 1485 1485 1484 1483 1482 1482 1481 1481 1480 1480 1479 1478 1476 1476 1475 1475 1474 1473 1472 1471 1470 1469 1468 1467 1466 1465 1465 1465 1464 1463 1463 1462 1461 1460 1460 1459
1474 1475 1475 1475 1476 1477 1477 1478 1478 1479 1479 1479 1480 1480 1480 1481 1481 1482 1482 1482 1483 1483 1483 1484 1484 1484 1485 1485 1485 1485 1485 1485 1485 1485 1485 1486 1486 1486 1486 1486 1486 1486 1486 1486 1485 1485 1485 1485 1485 1484 1484 1483 1483 1482 1481 1480 1480 1480 1479 1478 1477 1476 1475 1475 1474 1473 1472 1471 1470 1469 1468 1467 1466 1465 1464 1463 1463 1462 1462 1461 1460 1460 1459 1459 1458 1457
1473 1473 1474 1474 1475 1475 1476 1476 1477 1477 1477 1478 1478 1479 1479 1480 1480 1480 1480 1481 1481 1481 1482 1482 1483 1483 1483 1483 1483 1483 1483 1484 1484 1484 1484 1484 1484 1485 1485 1485 1485 1485 1485 1484 1484 1484 1484 1483 1483 1483 1482 1482 1481 1480 1480 1479 1479 1478 1477 1476 1476 1475 1474 1473 1473 1472 1471 1470 1469 1468 1466 1465 1464 1463 1462 1461 1460 1460 1460 1459 1458 1458 1457 1456 1456 1455
1471 1472 1472 1473 1473 1474 1474 1475 1475 1475 1476 1476 1477 1477 1478 1478 1479 1479 1479 1480 1480 1480 1480 1481 1481 1481 1481 1481 1482 1482 1482 1482 1482 1482 1482 1482 1483 1483 1483 1483 1483 1483 1483 1483 1483 1483 1482 1482 1481 1481 1480 1480 1480 1479 1479 1478 1477 1476 1475 1475 1474 1473 1473 1472 1471 1470 1469 1468 1467 1466 1465 1464 1463 1461 1460 1459 1459 1458 1458 1457 1456 1456 1455 1454 1454 1453
1470 1470 1471 1471 1472 1472 1473 1473 1474 1474 1475 1475 1475 1476 1476 1477 1477 1478 1478 1478 1478 1479 1479 1479 1479 1480 1480 1480 1480 1480 1480 1480 1481 1481 1481 1481 1481 1481 1482 1482 1482 1482 1482 1481 1481 1481 1481 1480 1480 1480 1479 1479 1478 1477 1477 1476 1476 1475 1474 1473 1473 1472 1471 1470 1470 1469 1468 1467 1465 1465 1463 1462 1461 1460 1458 1457 1456 1456 1455 1455 1455 1454 1453 1452 1452 1451
1468 1469 1469 1470 1470 1471 1471 1472 1472 1473 1473 1474 1474 1475 1475 1475 1476 1476 1476 1476 1477 1477 1477 1477 1477 1478 1478 1478 1479 1479 1479 1479 1479 1480 1480 1480 1480 1480 1480 1480 1480 1480 1480 1480 1480 1480 1479 1479 1479 1478 1478 1477 1476 1475 1475 1475 1474 1473 1473 1472 1471 1470 1470 1469 1468 1467 1466 1465 1464 1463 1462 1460 1459 1458 1457 1455 1454 1454 1453 1453 1452 1452 1451 1451 1450 1449
1467 1467 1468 1468 1469 1469 1470 1470 1471 1471 1472 1472 1473 1473 1474 1474 1474 1475 1475 1475 1475 1475 1475 1475 1476 1476 1476 1477 1477 1477 1478 1478 1478 1478 1478 1479 1479 1479 1479 1479 1479 1479 1479 1478 1478 1478 1477 1477 1477 1477 1476 1476 1475 1475 1474 1473 1472 1472 1471 1470 1470 1469 1468 1467 1466 1465 1464 1463 1462 1461 1460 1459 1458 1457 1455 1454 1452 1451 1451 1450 1450 1450 1450 1449 1448 1447
1465 1466 1466 1467 1467 1468 1468 1469 1470 1470 1470 1471 1471 1471 1472 1472 1473 1473 1473 1473 1473 1474 1474 1474 1474 1475 1475 1475 1475 1476 1476 1476 1477 1477 1477 1477 1477 1478 1477 1477 1477 1477 1477 1477 1476 1476 1475 1475 1475 1475 1475 1475 1475 1474 1473 1472 1471 1470 1470 1469 1468 1467 1466 1465 1465 1464 1463 1461 1460 1459 1458 1457 1456 1455 1454 1452 1450 1449 1448 1448 1448 1448 1447 1447 1446 1445
1464 1464 1465 1465 1466 1466 1467 1467 1468 1469 1469 1470 1470 1470 1470 1471 1471 1471 1471 1471 1472 1472 1472 1472 1473 1473 1473 1474 1474 1474 1475 1475 1475 1475 1476 1476 1476 1476 1476 1476 1476 1476 1476 1475 1475 1475 1474 1473 1473 1472 1472 1472 1473 1473 1472 1471 1470 1469 1468 1467 1467 1466 1465 1464 1463 1462 1461 1460 1459 1458 1456 1455 1455 1453 1452 1451 1449 1447 1446 1446 1445 1445 1445 1445 1444 1443